Location: Kellogg
(38.0159°N, 90.0546°W)
Time: 14:14:32
(UTC+00:00)

ARIANE 6 FM1 Upper Stage - Pass Details

Date: 21 January 2026
Orbit: 522 x 609 km, 62.0° (Epoch: 9 February)

Event Time Altitude Azimuth Distance (km) Brightness Sun altitude
Rises 01:32:08 0° 230° (SW) 2,718 6.9 -27.7°
Reaches altitude 10° 01:34:27 10° 237° (WSW) 1,813 6.0 -28.2°
Enters shadow 01:37:20 35° 272° (W) 888 4.1 -28.8°
